Terug naar catalogus

CZ-6A DEB

ActiefPO
NORAD 60967·DEBRIS·🇨🇳 China

Gelanceerd Aug 6, 2024 vanaf Taiyuan Satellite Launch Center

Loading…

Volgende Passages (komende 24 uur)

TLE

VersSource: Space-Track

Epoch: Sep 14, 2026, 10:54 UTC

1 60967U 24140LS  26257.45449640  .00001987  00000-0  10412-2 0  9992
2 60967  88.8189 250.3007 0120701 339.6195  20.0194 14.10256488106390

Volg CZ-6A DEB in realtime met AllMySat

Download on the App Store